This is the latest recevied weather packets stored in our database for station/object K5UTC. If no packets are shown the sender has not sent any weather packets the latest 1 day(s).
| Time | Temp. | Humidity | Pressure | Rain* | Wind** | Luminosity | Snow |
|---|---|---|---|---|---|---|---|
| 1836274731 | 21.11° C | 94% | 1017.1 hPa | 0 mm | 0 m/s | 0 W/m² | - |
| 1836274584 | 21.11° C | 94% | 1017.2 hPa | 0 mm | 0 m/s | 0 W/m² | - |
| 1836274429 | 21.11° C | 93% | 1017 hPa | 0 mm | 0 m/s | 0 W/m² | - |
| 1836274283 | 21.11° C | 94% | 1017.1 hPa | 0 mm | 0 m/s | 0 W/m² | - |
| 1836274128 | 21.11° C | 94% | 1017 hPa | 0 mm | 0 m/s | 0 W/m² | - |
| 1778060565 | 22.22° C | 78% | 1008.3 hPa | 0 mm | 0.45 m/s, 205° | 0 W/m² | - |
| 1778060263 | 22.78° C | 78% | 1008.4 hPa | 0 mm | 0.45 m/s, 303° | 0 W/m² | - |
| 1778059959 | 22.78° C | 77% | 1008.6 hPa | 0 mm | 0.45 m/s, 141° | 0 W/m² | - |
| 1778059657 | 22.78° C | 77% | 1008.9 hPa | 0 mm | 0.45 m/s, 157° | 0 W/m² | - |
| 1778059355 | 22.78° C | 76% | 1008.8 hPa | 0 mm | 0 m/s | 0 W/m² | - |
| 1778059052 | 22.78° C | 76% | 1008.7 hPa | 0 mm | 0.45 m/s, 158° | 0 W/m² | - |
| 1778058749 | 22.78° C | 76% | 1008.8 hPa | 0 mm | 0.45 m/s, 175° | 0 W/m² | - |
| 1778058447 | 22.78° C | 75% | 1008.8 hPa | 0 mm | 0.89 m/s, 143° | 0 W/m² | - |
| 1778058144 | 22.78° C | 75% | 1008.7 hPa | 0 mm | 0.89 m/s, 142° | 0 W/m² | - |
| 1778057841 | 22.78° C | 74% | 1008.5 hPa | 0 mm | 0 m/s | 0 W/m² | - |
| 1778057537 | 22.78° C | 75% | 1008.5 hPa | 0 mm | 0.45 m/s, 158° | 0 W/m² | - |
| 1778057234 | 22.78° C | 74% | 1008.6 hPa | 0 mm | 0.45 m/s, 160° | 0 W/m² | - |
| 1778056930 | 22.78° C | 74% | 1008.5 hPa | 0 mm | 0.45 m/s, 243° | 0 W/m² | - |
| 1778056627 | 22.78° C | 74% | 1008.5 hPa | 0 mm | 0 m/s | 0 W/m² | - |
| 1778056325 | 22.78° C | 73% | 1008.5 hPa | 0 mm | 0.45 m/s, 193° | 0 W/m² | - |
| 1778056022 | 22.78° C | 73% | 1008.3 hPa | 0 mm | 0 m/s | 0 W/m² | - |
| 1778055722 | 22.78° C | 73% | 1008.3 hPa | 0 mm | 0.45 m/s, 165° | 0 W/m² | - |
| 1778055420 | 22.78° C | 73% | 1008.6 hPa | 0 mm | 0.89 m/s, 201° | 0 W/m² | - |
| 1778055118 | 22.78° C | 72% | 1008.5 hPa | 0 mm | 0 m/s | 0 W/m² | - |
| 1778054815 | 22.78° C | 72% | 1008.6 hPa | 0 mm | 0 m/s | 0 W/m² | - |
* Rain latest hour (hover to see other rain measurements)
** Current wind speed in m/s (hover to see current wind gust speed)